LEMUR-2-TACHIKOMA

Last updated on Wed Feb 14 2018 16:20:29 GMT+0000 (Coordinated Universal Time)

1 41998U 17008BC 18045.18354235 .00001203 00000-0 53922-4 0 9997 2 41998 97.4649 110.5317 0010407 84.8775 275.3650 15.23144125 54602
UTC large
Height (km)
Speed (km/s)
/
Latitude / Longitude
Inclination (degrees)
Orbital Period (minutes)
Azimuth
Elevation
Range (km)
Doppler Factor

Next 0 passes for location: London (51.5072 / 0.1276)

Sorry there are no passes over London.
LEMUR-2-TACHIKOMA